Time,TemperatureF,DewpointF,PressureIn,WindDirection,WindDirectionDegrees,WindSpeedMPH,WindSpeedGustMPH,Humidity,HourlyPrecipIn,Conditions,Clouds,dailyrainin,SoftwareType,DateUTC
2013-06-20 00:02:00,65.0,-99.9,-100.00,NE,35,0.0,-999.0,-999,-99.99,,,-99.99,,2013-06-20 04:02:00,
2013-06-20 00:12:00,65.0,-99.9,-100.00,NE,35,0.0,-999.0,-999,-99.99,,,-99.99,,2013-06-20 04:12:00,
2013-06-20 00:23:00,64.0,-99.9,-100.00,NE,35,0.0,-999.0,-999,-99.99,,,-99.99,,2013-06-20 04:23:00,
2013-06-20 00:34:00,64.0,-99.9,-100.00,NE,35,0.0,-999.0,-999,-99.99,,,-99.99,,2013-06-20 04:34:00,
2013-06-20 00:44:00,64.0,-99.9,-100.00,NE,35,0.0,-999.0,-999,-99.99,,,-99.99,,2013-06-20 04:44:00,
2013-06-20 00:54:00,63.0,-99.9,-100.00,NE,35,0.0,-999.0,-999,-99.99,,,-99.99,,2013-06-20 04:54:00,
2013-06-20 01:02:00,63.0,-99.9,-100.00,NE,35,0.0,-999.0,-999,-99.99,,,-99.99,,2013-06-20 05:02:00,
2013-06-20 01:12:00,63.0,-99.9,-100.00,NE,35,0.0,-999.0,-999,-99.99,,,-99.99,,2013-06-20 05:12:00,
2013-06-20 01:22:00,64.0,-99.9,-100.00,East,85,1.0,-999.0,-999,-99.99,,,-99.99,,2013-06-20 05:22:00,
2013-06-20 01:33:00,64.0,-99.9,-100.00,East,85,1.0,-999.0,-999,-99.99,,,-99.99,,2013-06-20 05:33:00,
2013-06-20 01:44:00,64.0,-99.9,-100.00,East,79,2.0,-999.0,-999,-99.99,,,-99.99,,2013-06-20 05:44:00,
2013-06-20 01:53:00,64.0,-99.9,-100.00,East,90,0.0,-999.0,-999,-99.99,,,-99.99,,2013-06-20 05:53:00,
2013-06-20 02:02:00,63.0,-99.9,-100.00,East,101,1.0,-999.0,-999,-99.99,,,-99.99,,2013-06-20 06:02:00,
2013-06-20 02:12:00,63.0,-99.9,-100.00,East,101,1.0,-999.0,-999,-99.99,,,-99.99,,2013-06-20 06:12:00,
2013-06-20 02:22:00,63.0,-99.9,-100.00,East,83,1.0,-999.0,-999,-99.99,,,-99.99,,2013-06-20 06:22:00,
2013-06-20 02:34:00,63.0,-99.9,-100.00,East,83,1.0,-999.0,-999,-99.99,,,-99.99,,2013-06-20 06:34:00,
2013-06-20 02:43:00,62.0,-99.9,-100.00,East,93,1.0,-999.0,-999,-99.99,,,-99.99,,2013-06-20 06:43:00,
2013-06-20 02:53:00,62.0,-99.9,-100.00,East,87,0.0,-999.0,-999,-99.99,,,-99.99,,2013-06-20 06:53:00,
2013-06-20 03:02:00,62.0,-99.9,-100.00,ENE,61,0.0,-999.0,-999,-99.99,,,-99.99,,2013-06-20 07:02:00,
2013-06-20 03:12:00,62.0,-99.9,-100.00,ENE,61,0.0,-999.0,-999,-99.99,,,-99.99,,2013-06-20 07:12:00,
2013-06-20 03:23:00,61.0,-99.9,-100.00,ENE,70,0.0,-999.0,-999,-99.99,,,-99.99,,2013-06-20 07:23:00,
2013-06-20 03:34:00,61.0,-99.9,-100.00,ENE,70,0.0,-999.0,-999,-99.99,,,-99.99,,2013-06-20 07:34:00,
2013-06-20 03:44:00,61.0,-99.9,-100.00,East,84,0.0,-999.0,-999,-99.99,,,-99.99,,2013-06-20 07:44:00,
2013-06-20 03:53:00,61.0,-99.9,-100.00,East,84,0.0,-999.0,-999,-99.99,,,-99.99,,2013-06-20 07:53:00,
2013-06-20 04:02:00,61.0,-99.9,-100.00,East,84,0.0,-999.0,-999,-99.99,,,-99.99,,2013-06-20 08:02:00,
2013-06-20 04:12:00,60.0,-99.9,-100.00,East,84,0.0,-999.0,-999,-99.99,,,-99.99,,2013-06-20 08:12:00,
2013-06-20 04:22:00,60.0,-99.9,-100.00,East,84,0.0,-999.0,-999,-99.99,,,-99.99,,2013-06-20 08:22:00,
2013-06-20 04:34:00,60.0,-99.9,-100.00,East,84,0.0,-999.0,-999,-99.99,,,-99.99,,2013-06-20 08:34:00,
2013-06-20 04:43:00,60.0,-99.9,-100.00,East,84,0.0,-999.0,-999,-99.99,,,-99.99,,2013-06-20 08:43:00,
2013-06-20 04:53:00,60.0,-99.9,-100.00,East,84,0.0,-999.0,-999,-99.99,,,-99.99,,2013-06-20 08:53:00,
2013-06-20 05:02:00,60.0,-99.9,-100.00,East,84,0.0,-999.0,-999,-99.99,,,-99.99,,2013-06-20 09:02:00,
2013-06-20 05:12:00,59.0,-99.9,-100.00,East,84,0.0,-999.0,-999,-99.99,,,-99.99,,2013-06-20 09:12:00,
2013-06-20 05:22:00,59.0,-99.9,-100.00,East,84,0.0,-999.0,-999,-99.99,,,-99.99,,2013-06-20 09:22:00,
2013-06-20 05:34:00,59.0,-99.9,-100.00,East,84,0.0,-999.0,-999,-99.99,,,-99.99,,2013-06-20 09:34:00,
2013-06-20 05:43:00,59.0,-99.9,-100.00,East,84,0.0,-999.0,-999,-99.99,,,-99.99,,2013-06-20 09:43:00,
2013-06-20 05:52:00,59.0,-99.9,-100.00,East,84,0.0,-999.0,-999,-99.99,,,-99.99,,2013-06-20 09:52:00,
2013-06-20 06:02:00,59.0,-99.9,-100.00,East,84,0.0,-999.0,-999,-99.99,,,-99.99,,2013-06-20 10:02:00,
2013-06-20 06:12:00,58.0,-99.9,-100.00,East,84,0.0,-999.0,-999,-99.99,,,-99.99,,2013-06-20 10:12:00,
2013-06-20 06:22:00,58.0,-99.9,-100.00,East,84,0.0,-999.0,-999,-99.99,,,-99.99,,2013-06-20 10:22:00,
2013-06-20 06:34:00,58.0,-99.9,-100.00,East,84,0.0,-999.0,-999,-99.99,,,-99.99,,2013-06-20 10:34:00,
2013-06-20 06:44:00,58.0,-99.9,-100.00,East,84,0.0,-999.0,-999,-99.99,,,-99.99,,2013-06-20 10:44:00,
2013-06-20 06:53:00,58.0,-99.9,-100.00,East,84,0.0,-999.0,-999,-99.99,,,-99.99,,2013-06-20 10:53:00,
2013-06-20 07:02:00,58.0,-99.9,-100.00,East,84,0.0,-999.0,-999,-99.99,,,-99.99,,2013-06-20 11:02:00,
2013-06-20 07:12:00,59.0,-99.9,-100.00,East,84,0.0,-999.0,-999,-99.99,,,-99.99,,2013-06-20 11:12:00,
2013-06-20 07:22:00,59.0,-99.9,-100.00,East,84,0.0,-999.0,-999,-99.99,,,-99.99,,2013-06-20 11:22:00,
2013-06-20 07:34:00,59.0,-99.9,-100.00,East,84,0.0,-999.0,-999,-99.99,,,-99.99,,2013-06-20 11:34:00,
2013-06-20 07:43:00,60.0,-99.9,-100.00,East,87,0.0,-999.0,-999,-99.99,,,-99.99,,2013-06-20 11:43:00,
2013-06-20 07:53:00,61.0,-99.9,-100.00,East,89,4.0,-999.0,-999,-99.99,,,-99.99,,2013-06-20 11:53:00,
2013-06-20 08:02:00,61.0,-99.9,-100.00,East,89,4.0,-999.0,-999,-99.99,,,-99.99,,2013-06-20 12:02:00,
2013-06-20 08:12:00,62.0,-99.9,-100.00,East,96,0.0,-999.0,-999,-99.99,,,-99.99,,2013-06-20 12:12:00,
2013-06-20 08:22:00,64.0,-99.9,-100.00,ENE,68,0.0,-999.0,-999,-99.99,,,-99.99,,2013-06-20 12:22:00,
2013-06-20 08:34:00,64.0,-99.9,-100.00,ENE,68,0.0,-999.0,-999,-99.99,,,-99.99,,2013-06-20 12:34:00,
2013-06-20 08:43:00,65.0,-99.9,-100.00,ENE,68,0.0,-999.0,-999,-99.99,,,-99.99,,2013-06-20 12:43:00,
2013-06-20 08:53:00,67.0,-99.9,-100.00,East,96,0.0,-999.0,-999,-99.99,,,-99.99,,2013-06-20 12:53:00,
2013-06-20 09:02:00,67.0,-99.9,-100.00,East,96,0.0,-999.0,-999,-99.99,,,-99.99,,2013-06-20 13:02:00,
2013-06-20 09:12:00,67.0,-99.9,-100.00,East,96,0.0,-999.0,-999,-99.99,,,-99.99,,2013-06-20 13:12:00,
2013-06-20 09:22:00,70.0,-99.9,-100.00,East,96,0.0,-999.0,-999,-99.99,,,-99.99,,2013-06-20 13:22:00,
2013-06-20 09:33:00,70.0,-99.9,-100.00,East,96,0.0,-999.0,-999,-99.99,,,-99.99,,2013-06-20 13:33:00,
2013-06-20 09:43:00,71.0,-99.9,-100.00,East,98,0.0,-999.0,-999,-99.99,,,-99.99,,2013-06-20 13:43:00,
2013-06-20 09:53:00,73.0,-99.9,-100.00,East,100,0.0,-999.0,-999,-99.99,,,-99.99,,2013-06-20 13:53:00,
2013-06-20 10:02:00,74.0,-99.9,-100.00,ESE,102,0.0,-999.0,-999,-99.99,,,-99.99,,2013-06-20 14:02:00,
2013-06-20 10:12:00,74.0,-99.9,-100.00,ESE,102,0.0,-999.0,-999,-99.99,,,-99.99,,2013-06-20 14:12:00,
2013-06-20 10:22:00,75.0,-99.9,-100.00,ESE,102,0.0,-999.0,-999,-99.99,,,-99.99,,2013-06-20 14:22:00,
2013-06-20 10:33:00,75.0,-99.9,-100.00,ESE,102,0.0,-999.0,-999,-99.99,,,-99.99,,2013-06-20 14:33:00,
2013-06-20 10:42:00,76.0,-99.9,-100.00,SW,220,0.0,-999.0,-999,-99.99,,,-99.99,,2013-06-20 14:42:00,
2013-06-20 10:53:00,77.0,-99.9,-100.00,SSW,201,0.0,-999.0,-999,-99.99,,,-99.99,,2013-06-20 14:53:00,
2013-06-20 11:02:00,77.0,-99.9,-100.00,SSW,201,0.0,-999.0,-999,-99.99,,,-99.99,,2013-06-20 15:02:00,
2013-06-20 11:12:00,77.0,-99.9,-100.00,SSW,198,2.0,-999.0,-999,-99.99,,,-99.99,,2013-06-20 15:12:00,
2013-06-20 11:22:00,77.0,-99.9,-100.00,SSW,198,0.0,-999.0,-999,-99.99,,,-99.99,,2013-06-20 15:22:00,
2013-06-20 11:34:00,76.0,-99.9,-100.00,SSW,198,0.0,-999.0,-999,-99.99,,,-99.99,,2013-06-20 15:34:00,
2013-06-20 11:43:00,76.0,-99.9,-100.00,SSW,198,0.0,-999.0,-999,-99.99,,,-99.99,,2013-06-20 15:43:00,
2013-06-20 11:53:00,80.0,-99.9,-100.00,SSW,198,0.0,-999.0,-999,-99.99,,,-99.99,,2013-06-20 15:53:00,
2013-06-20 12:02:00,80.0,-99.9,-100.00,SSW,198,0.0,-999.0,-999,-99.99,,,-99.99,,2013-06-20 16:02:00,
2013-06-20 12:12:00,79.0,-99.9,-100.00,SSW,198,0.0,-999.0,-999,-99.99,,,-99.99,,2013-06-20 16:12:00,
2013-06-20 12:23:00,80.0,-99.9,-100.00,SSW,198,0.0,-999.0,-999,-99.99,,,-99.99,,2013-06-20 16:23:00,
2013-06-20 12:33:00,81.0,-99.9,-100.00,SSW,198,0.0,-999.0,-999,-99.99,,,-99.99,,2013-06-20 16:33:00,
2013-06-20 12:43:00,81.0,-99.9,-100.00,SSW,198,0.0,-999.0,-999,-99.99,,,-99.99,,2013-06-20 16:43:00,
2013-06-20 12:53:00,79.0,-99.9,-100.00,SSW,198,0.0,-999.0,-999,-99.99,,,-99.99,,2013-06-20 16:53:00,
2013-06-20 13:02:00,79.0,-99.9,-100.00,SSW,198,0.0,-999.0,-999,-99.99,,,-99.99,,2013-06-20 17:02:00,
2013-06-20 13:12:00,79.0,-99.9,-100.00,SSW,198,0.0,-999.0,-999,-99.99,,,-99.99,,2013-06-20 17:12:00,
2013-06-20 13:22:00,81.0,-99.9,-100.00,SSW,200,0.0,-999.0,-999,-99.99,,,-99.99,,2013-06-20 17:22:00,
2013-06-20 13:33:00,81.0,-99.9,-100.00,SSW,200,0.0,-999.0,-999,-99.99,,,-99.99,,2013-06-20 17:33:00,
2013-06-20 13:43:00,81.0,-99.9,-100.00,SSW,200,1.0,-999.0,-999,-99.99,,,-99.99,,2013-06-20 17:43:00,
2013-06-20 13:53:00,81.0,-99.9,-100.00,SSW,201,1.0,-999.0,-999,-99.99,,,-99.99,,2013-06-20 17:53:00,
2013-06-20 14:01:00,81.0,-99.9,-100.00,SSW,201,1.0,-999.0,-999,-99.99,,,-99.99,,2013-06-20 18:01:00,
2013-06-20 14:12:00,82.0,-99.9,-100.00,SSW,200,0.0,-999.0,-999,-99.99,,,-99.99,,2013-06-20 18:12:00,
2013-06-20 14:22:00,81.0,-99.9,-100.00,SSW,200,0.0,-999.0,-999,-99.99,,,-99.99,,2013-06-20 18:22:00,
2013-06-20 14:34:00,81.0,-99.9,-100.00,SSW,200,0.0,-999.0,-999,-99.99,,,-99.99,,2013-06-20 18:34:00,
2013-06-20 14:43:00,80.0,-99.9,-100.00,SSW,200,0.0,-999.0,-999,-99.99,,,-99.99,,2013-06-20 18:43:00,
2013-06-20 14:53:00,81.0,-99.9,-100.00,SSW,200,0.0,-999.0,-999,-99.99,,,-99.99,,2013-06-20 18:53:00,
2013-06-20 15:02:00,81.0,-99.9,-100.00,SSW,200,0.0,-999.0,-999,-99.99,,,-99.99,,2013-06-20 19:02:00,
2013-06-20 15:11:00,84.0,-99.9,-100.00,SSW,200,1.0,-999.0,-999,-99.99,,,-99.99,,2013-06-20 19:11:00,
2013-06-20 15:22:00,83.0,-99.9,-100.00,SSW,195,0.0,-999.0,-999,-99.99,,,-99.99,,2013-06-20 19:22:00,
2013-06-20 15:34:00,83.0,-99.9,-100.00,SSW,195,0.0,-999.0,-999,-99.99,,,-99.99,,2013-06-20 19:34:00,
2013-06-20 15:44:00,82.0,-99.9,-100.00,SSW,196,0.0,-999.0,-999,-99.99,,,-99.99,,2013-06-20 19:44:00,
2013-06-20 15:53:00,81.0,-99.9,-100.00,SSW,195,0.0,-999.0,-999,-99.99,,,-99.99,,2013-06-20 19:53:00,
2013-06-20 16:02:00,81.0,-99.9,-100.00,SSW,195,0.0,-999.0,-999,-99.99,,,-99.99,,2013-06-20 20:02:00,
2013-06-20 16:12:00,82.0,-99.9,-100.00,North,0,3.0,-999.0,-999,-99.99,,,-99.99,,2013-06-20 20:12:00,
2013-06-20 16:33:00,81.0,-99.9,-100.00,North,9,2.0,-999.0,-999,-99.99,,,-99.99,,2013-06-20 20:33:00,
2013-06-20 16:43:00,81.0,-99.9,-100.00,North,8,0.0,-999.0,-999,-99.99,,,-99.99,,2013-06-20 20:43:00,
2013-06-20 16:53:00,82.0,-99.9,-100.00,North,8,1.0,-999.0,-999,-99.99,,,-99.99,,2013-06-20 20:53:00,